NOAA-15
1 25338U 98030A   06131.22010062  .00000067  00000-0  47160-4 0  5075
2 25338 098.5169 134.6289 0011453 119.0140 241.2184 14.24577414415454
RESURS
1 25394U 98043A   06131.18726756  .00000019  00000-0  26674-4 0  3634
2 25394 098.4926 195.3210 0000948 321.8634 038.2478 14.24099557407135
FENGYUN1
1 25730U 99025A   06130.84379667 -.00000168  00000-0 -68975-4 0  7244
2 25730 098.6242 124.8057 0013443 247.5414 112.4322 14.11809135360747
OKEAN-0
1 25860U 99039A   06130.65501290  .00000158  00000-0  31675-4 0  7436
2 25860 097.7344 146.7371 0000586 097.9516 262.1754 14.73360858366223
NOAA-16
1 26536U 00055A   06131.37768966  .00000312  00000-0  19399-3 0  8769
2 26536 099.0635 097.5677 0009908 220.8516 139.1919 14.12340096290382
NOAA-17
1 27453U 02032A   06131.41717326  .00000015  00000-0  25663-4 0  8979
2 27453 098.6218 204.3408 0011884 177.9331 182.1885 14.23775307201545
NOAA-18
1 28654U 05018A   06131.47417693  .00000289  00000-0  18497-3 0  4773
2 28654 098.7863 075.5381 0014076 329.3253 030.7104 14.10957144 50200
HUBBLE
1 20580U 90037B   06130.77019390  .00000798  00000-0  49575-4 0  6063
2 20580 028.4681 293.8108 0003869 151.3757 208.7044 15.00032456679476
UARS
1 21701U 91063B   06131.78960890  .00008811  00000-0  16411-3 0  7664
2 21701 056.9752 249.3012 0109196 137.6817 223.2648 15.43431318803682
PO-34
1 25520U 98064B   06131.76303247  .00000944  00000-0  37130-4 0  4624
2 25520 028.4589 274.8178 0005511 200.2308 159.8067 15.16704153416512
ISS
1 25544U 98067A   06131.98513889  .00013336  00000-0  90856-4 0  9169
2 25544 051.6383 013.8465 0009548 188.0374 009.9984 15.75205568427457
OO-38
1 26063U 00004C   06130.66201886 -.00000006  00000-0  18359-4 0 06161
2 26063 100.1872 054.9479 0036737 212.5557 147.3354 14.35764095329295
NO-45
1 26932U 01043D   06131.42385385  .00000212  00000-0  11518-3 0  3111
2 26932 067.0558 102.0693 0008861 269.8294 090.1789 14.29525491240719
UWE-1
1 28892U 05043C   06131.17205996  .00000249  00000-0  62496-4 0  4464
2 28892 098.1679 029.9803 0016435 288.3148 071.6279 14.59347197 28579
CO-58
1 28895U 05043F   06130.75321588  .00000226  00000-0  57445-4 0  4290
2 28895 098.1710 029.6359 0016885 290.2324 069.7060 14.59401320 28393
NCUBE2
1 28897U 05043H   06129.91180687  .00000240  00000-0  60264-4 0 00667
2 28897 098.1677 028.7989 0016423 295.9892 063.9633 14.59554275020545
